Wind_Speed
62 57 57 50 55 45 35 42 38 42 42 47 39 38 39 40 38 38 38 44 39 39 42 49 50 51 52 55 53 51 47 44 41 44 43 46 50 53 49 50 51 53 57 60 62 63 62 55 54
62 57 64 59 51 49 45 45 48 42 46 44 45 41 41 44 46 47 46 42 43 44 49 52 57 55 53 53 54 51 47 42 44 46 49 53 57 57 57 56 60 52 58 60 62 59 58 54 52
58 61 55 58 56 62 53 52 47 51 50 48 42 40 44 47 46 43 45 44 48 51 57 58 60 56 54 51 49 49 49 46 49 51 56 59 64 64 64 61 60 58 62 61 62 57 55 53 54
69 67 58 52 59 60 57 54 52 51 54 53 51 46 49 54 52 44 42 43 50 53 57 57 55 52 50 48 48 48 52 55 54 56 60 65 65 64 62 63 60 60 66 65 64 61 56 56 56
66 68 62 64 58 60 58 59 56 56 54 52 50 50 48 50 45 45 46 51 53 55 51 51 49 47 49 52 55 53 54 55 58 61 64 64 62 61 62 61 60 64 68 68 66 64 59 56 57
70 71 64 59 63 63 62 61 56 59 62 56 53 54 51 48 49 48 51 50 52 48 49 53 56 55 55 53 53 54 54 57 61 63 62 61 63 64 65 64 64 65 67 68 67 65 62 59 59
72 75 64 62 64 66 67 65 64 57 60 62 61 55 52 54 52 53 52 48 46 45 47 54 54 52 51 55 55 57 59 61 62 64 63 63 66 68 68 68 68 71 71 69 67 65 62 61 61
83 77 72 71 72 75 75 68 67 68 67 62 57 55 55 57 56 51 47 46 44 49 50 51 54 56 57 58 59 61 61 63 65 69 65 65 68 69 70 73 73 75 76 72 68 66 63 63 60
81 74 68 67 72 76 74 72 71 73 65 62 59 59 60 60 52 49 49 50 54 56 61 64 61 60 61 59 60 61 64 65 65 66 69 71 73 74 76 77 77 78 78 73 70 67 63 62 60
93 84 71 77 80 82 81 75 74 69 64 66 67 65 59 54 56 57 56 55 56 66 69 72 70 66 66 67 69 68 66 70 68 69 72 74 77 77 78 80 80 80 79 75 71 68 64 60 60
94 90 83 80 78 77 75 69 70 70 63 62 64 64 63 60 60 59 60 62 65 67 71 67 66 68 70 71 72 72 73 72 73 76 78 79 81 82 82 81 81 79 77 74 71 68 64 58 57
101 97 96 91 86 82 77 79 68 67 63 68 68 63 64 62 65 66 67 69 71 73 71 73 65 66 66 69 67 70 72 75 80 80 82 82 84 84 81 81 80 78 76 72 69 64 63 59 55
105 100 100 96 94 89 86 77 76 75 68 68 68 69 68 68 70 72 74 76 73 69 68 68 66 66 65 67 73 75 79 81 82 83 84 84 87 83 81 79 77 76 73 70 63 63 62 61 57
98 96 98 95 89 89 90 84 78 73 74 73 75 69 67 67 68 67 68 72 69 66 67 67 65 63 67 74 78 79 81 82 85 86 87 88 86 80 81 75 72 73 70 63 64 63 62 61 58
112 106 102 97 93 88 89 82 74 72 74 71 72 74 75 74 72 71 72 71 70 66 67 66 67 71 76 76 78 80 82 87 89 89 90 87 81 75 69 67 71 67 63 64 63 61 62 60 56
107 112 112 102 102 101 104 84 82 82 83 82 83 83 81 77 76 74 70 65 66 68 68 69 71 73 73 77 81 84 84 86 88 89 84 80 76 70 64 63 63 60 63 64 61 60 59 57 57
109 103 101 97 99 107 110 91 89 92 95 88 89 87 82 72 67 68 70 71 71 71 69 66 68 71 76 79 81 84 86 85 81 78 79 75 72 66 56 53 52 62 64 61 59 59 57 56 55
108 105 104 101 99 104 108 93 87 89 94 90 83 76 71 69 68 70 72 72 73 70 69 67 66 70 71 78 82 83 80 78 77 75 70 68 62 59 44 49 60 64 62 59 58 57 56 53 46
122 115 112 108 105 102 100 93 86 88 89 84 78 72 71 71 71 70 70 70 67 66 66 66 71 76 77 79 79 74 74 72 70 65 61 57 52 49 47 56 60 60 60 57 55 53 48 46 46
117 114 114 111 109 109 102 93 87 86 82 83 83 77 71 65 66 69 70 67 66 66 70 71 78 79 76 74 71 71 68 70 66 60 53 47 45 47 51 54 55 57 53 51 50 45 40 39 37
113 111 111 112 113 107 101 97 89 87 84 83 77 72 69 66 69 69 68 68 68 70 73 77 79 74 70 70 67 68 67 61 56 49 44 39 39 47 51 52 53 50 48 45 41 36 36 33 31
111 108 108 106 108 105 104 95 94 86 82 83 80 75 73 74 78 76 75 71 73 76 77 77 70 68 69 68 65 61 54 51 45 41 39 37 42 44 48 49 47 44 41 38 34 33 32 30 28
107 108 104 103 101 100 95 89 72 86 79 78 83 79 83 83 78 74 76 75 78 76 69 66 66 66 64 61 59 55 50 41 37 36 35 37 41 44 45 43 40 37 32 31 29 27 26 25 24
108 106 105 104 101 91 85 84 68 75 73 75 74 69 68 69 70 71 73 70 67 61 60 61 63 60 55 54 50 44 38 36 34 32 34 38 40 41 39 38 33 28 25 25 25 24 24 22 20
107 104 102 100 96 84 86 77 64 73 67 66 59 56 58 58 58 57 58 57 56 57 56 55 53 51 43 40 37 33 31 31 31 33 35 38 38 33 34 33 24 21 22 21 15 18 20 16 15
107 103 99 96 90 86 85 66 66 66 65 62 57 57 57 56 54 54 53 53 49 47 46 47 46 36 33 30 29 27 29 30 33 33 35 35 29 29 32 27 17 17 18 14 10 16 19 16 14
113 106 98 95 89 83 74 65 59 60 59 56 54 53 51 49 46 47 42 41 39 40 41 40 31 27 26 24 23 26 29 32 32 34 32 26 23 28 28 21 13 10 11 12 12 16 16 15 13
116 111 106 95 87 75 66 58 49 53 45 43 40 37 35 36 38 33 31 33 35 37 31 22 19 15 17 21 24 29 28 30 33 31 25 18 22 26 24 14 8 4 10 11 12 13 16 19 18
107 112 111 103 91 76 65 53 48 49 47 37 31 30 30 33 28 24 27 25 29 24 18 15 12 18 22 22 28 27 27 30 29 25 20 15 20 25 23 13 3 1 6 9 10 12 19 21 19
98 102 104 102 93 81 66 57 56 56 50 39 33 33 32 28 25 25 21 24 23 22 18 16 14 21 22 25 29 26 27 28 23 21 14 15 20 25 20 13 6 2 6 8 11 14 17 20 18
Wind_Direction
244 242 243 244 250 248 263 268 248 248 257 257 266 271 274 269 264 273 281 282 281 281 285 288 290 298 302 301 298 296 296 295 297 302 309 311 314 315 310 310 305 297 302 304 304 302 300 289 286
251 263 245 255 251 249 248 254 254 257 255 255 259 265 275 275 275 279 287 286 285 283 283 286 293 296 296 298 299 297 292 297 295 297 302 306 309 308 309 305 305 305 308 307 305 302 300 291 291
246 252 256 245 259 254 252 256 253 259 262 262 261 267 271 280 282 284 291 291 290 288 287 289 291 291 294 295 294 293 291 290 291 294 298 305 307 308 309 306 307 302 309 310 308 303 301 291 288
245 247 248 252 256 256 251 254 255 258 262 266 268 264 274 279 281 283 282 287 290 289 289 291 290 289 289 288 290 292 290 290 290 293 299 303 306 307 308 308 306 305 311 310 310 305 299 293 290
239 239 244 247 245 250 249 255 256 259 261 262 266 270 269 275 278 283 283 283 289 288 290 287 286 286 287 289 293 290 289 288 292 294 296 301 304 305 308 310 305 305 310 309 309 306 302 297 296
240 243 246 243 248 251 251 253 257 260 260 262 266 270 270 269 274 277 281 286 286 282 284 281 281 284 290 292 291 289 289 292 295 297 299 303 303 303 305 305 306 306 306 307 307 306 304 301 298
241 240 243 245 253 253 254 256 258 258 262 263 260 262 267 271 272 277 278 278 277 283 281 281 284 289 291 295 292 296 294 295 298 299 302 302 301 302 304 304 306 307 308 305 304 302 304 302 299
238 240 244 244 247 251 252 255 255 258 259 259 257 259 266 271 274 270 273 273 276 278 277 281 287 292 297 299 298 296 298 301 301 300 299 299 299 301 305 306 307 307 308 304 303 303 305 303 298
244 249 245 247 250 252 254 257 258 259 260 259 260 265 268 272 270 273 272 273 276 277 281 284 286 288 294 294 295 293 295 297 299 299 301 301 301 303 303 305 307 308 307 304 303 304 305 302 298
247 244 249 251 255 257 260 258 258 258 256 260 265 265 266 267 268 268 267 269 274 279 279 282 283 285 288 291 295 295 296 299 300 301 302 303 304 305 305 307 307 307 305 304 304 305 304 300 299
244 246 248 254 251 251 252 252 255 259 261 263 263 268 269 264 266 269 270 275 277 279 284 283 282 285 287 290 293 295 296 297 297 299 301 304 306 307 306 306 306 305 304 304 305 306 302 300 301
243 243 249 252 248 251 255 253 256 262 262 267 269 267 268 264 272 272 276 279 282 285 284 285 287 289 289 293 295 295 293 295 297 299 302 304 306 306 305 304 304 303 303 305 307 304 302 303 302
248 247 247 248 251 253 252 257 258 260 263 267 270 269 268 271 273 276 279 282 283 284 286 286 285 287 289 293 293 294 296 297 298 300 302 304 304 303 302 303 303 302 303 305 305 304 305 306 305
245 243 245 245 246 250 252 254 255 261 263 262 262 264 269 271 275 279 282 282 282 283 284 286 288 290 289 290 292 294 295 297 298 300 302 302 302 301 301 303 302 301 305 306 306 305 305 305 308
244 244 247 248 248 250 254 251 258 257 259 260 264 266 268 274 277 278 278 281 279 282 284 286 287 287 289 292 294 294 295 296 298 299 299 299 298 300 304 304 302 303 305 304 304 306 306 307 307
246 246 246 248 250 251 253 249 257 259 261 261 262 267 271 275 277 279 279 276 278 280 283 286 289 291 291 292 293 297 299 297 297 298 297 296 298 299 303 299 299 300 302 304 305 306 306 305 301
247 249 249 250 251 252 254 253 256 258 260 262 264 269 274 277 278 275 274 276 278 281 285 287 293 294 290 292 295 296 296 297 296 294 295 297 298 301 304 298 291 297 302 305 307 306 304 300 295
250 250 248 248 250 251 253 250 253 256 260 262 266 269 271 270 272 271 274 277 280 284 285 287 292 295 294 294 294 295 297 295 294 295 298 299 300 301 296 289 295 302 306 307 306 306 301 298 293
247 248 246 248 249 252 252 251 250 253 257 263 267 267 269 269 271 271 275 279 282 282 285 287 294 297 295 294 293 294 292 293 294 298 299 299 298 298 293 296 301 305 305 308 306 303 302 295 290
246 247 246 247 250 251 252 252 252 256 260 263 265 269 270 269 271 274 275 279 282 284 286 288 294 295 294 292 292 290 290 291 296 297 297 297 297 297 296 300 303 303 310 309 307 304 299 296 293
245 246 245 247 249 251 252 251 254 256 260 266 266 265 264 266 271 275 275 278 281 284 287 288 290 291 289 289 289 289 290 295 296 292 292 293 291 292 301 302 304 310 310 302 303 305 304 303 299
243 245 246 246 247 248 252 251 254 255 260 264 262 259 264 267 272 275 276 277 280 283 284 286 287 287 286 286 286 288 296 294 290 288 291 293 294 299 299 303 307 310 306 305 305 309 308 305 304
241 242 244 247 248 249 251 254 251 254 256 252 251 259 264 267 272 272 273 273 279 280 282 283 284 284 284 284 287 293 291 288 286 288 292 298 300 298 302 306 311 308 303 301 308 309 311 309 306
241 242 243 245 247 250 252 254 251 252 252 252 256 261 263 264 265 267 268 273 275 278 279 279 280 281 283 286 291 286 285 286 287 290 299 300 299 303 305 312 314 303 305 308 305 308 307 305 307
241 242 243 244 246 249 249 250 251 254 253 258 261 262 260 261 262 265 267 268 273 274 275 276 275 282 285 286 283 282 286 288 294 303 304 303 303 303 308 315 305 299 308 317 319 306 297 314 326
239 241 242 244 245 245 247 251 254 251 254 256 261 261 259 259 260 262 266 269 269 269 269 272 279 281 280 282 280 290 288 296 303 305 304 303 303 305 314 316 296 298 307 324 315 309 330 330 335
236 238 240 241 241 241 245 244 245 251 252 257 254 255 257 260 259 259 261 262 262 264 268 276 276 273 276 284 291 291 299 303 304 304 306 303 297 308 314 306 285 309 316 335 310 341 8 11 356
234 234 237 238 239 240 240 239 241 248 248 247 249 251 251 248 248 253 246 255 262 266 270 269 275 291 288 285 295 304 301 301 303 304 300 291 302 316 313 281 270 291 341 333 2 23 22 32 27
231 232 233 234 235 235 233 232 230 238 237 237 237 235 232 235 238 238 247 256 262 257 251 256 293 297 291 289 303 299 299 304 305 300 295 292 308 319 315 262 215 9 347 355 12 54 38 30 26
229 230 232 232 231 231 229 227 228 230 232 232 222 221 224 221 227 232 247 253 248 236 247 250 310 305 296 297 303 298 304 310 301 297 287 293 305 314 312 261 187 164 66 29 66 49 37 53 50
Height
10910 10911 10912 10911 10914 10915 10918 10920 10923 10921 10921 10924 10924 10929 10933 10932 10929 10931 10932 10931 10929 10928 10925 10922 10921 10919 10915 10910 10906 10904 10900 10898 10895 10894 10890 10889 10886 10884 10880 10876 10874 10871 10868 10864 10860 10854 10849 10846 10844
10902 10903 10903 10905 10904 10905 10910 10911 10915 10915 10913 10916 10920 10922 10923 10922 10920 10925 10925 10924 10923 10921 10919 10917 10915 10912 10908 10906 10900 10896 10894 10891 10888 10886 10883 10879 10875 10873 10871 10866 10863 10860 10857 10853 10848 10843 10839 10835 10831
10892 10894 10895 10895 10892 10895 10903 10902 10908 10910 10908 10909 10916 10918 10916 10912 10914 10919 10919 10919 10915 10915 10912 10910 10907 10903 10900 10899 10895 10890 10887 10884 10881 10878 10875 10870 10865 10861 10858 10853 10849 10846 10843 10840 10836 10832 10828 10826 10823
10883 10886 10887 10889 10882 10888 10893 10894 10898 10902 10901 10904 10906 10913 10910 10905 10908 10911 10913 10912 10908 10907 10904 10901 10897 10894 10892 10890 10888 10886 10881 10877 10874 10871 10867 10861 10856 10851 10847 10842 10836 10831 10827 10825 10822 10818 10815 10813 10810
10874 10877 10881 10879 10872 10874 10882 10886 10892 10891 10892 10898 10898 10900 10905 10901 10901 10903 10904 10904 10901 10897 10895 10891 10888 10885 10882 10882 10879 10878 10876 10871 10866 10863 10859 10854 10849 10843 10839 10833 10828 10822 10816 10810 10808 10805 10801 10798 10795
10864 10868 10873 10869 10863 10863 10869 10876 10882 10884 10883 10890 10890 10890 10895 10897 10895 10896 10897 10897 10893 10890 10888 10884 10881 10880 10876 10872 10870 10868 10866 10864 10855 10852 10848 10843 10837 10833 10828 10824 10818 10812 10806 10799 10794 10790 10786 10782 10778
10854 10859 10864 10861 10853 10853 10851 10867 10873 10873 10873 10877 10885 10882 10884 10887 10891 10892 10892 10893 10890 10887 10882 10876 10872 10870 10866 10860 10858 10856 10853 10851 10844 10838 10835 10831 10827 10823 10818 10811 10806 10799 10794 10787 10781 10777 10773 10768 10763
10842 10850 10855 10853 10843 10839 10841 10853 10856 10861 10864 10867 10873 10875 10878 10878 10881 10883 10885 10884 10884 10882 10875 10872 10868 10865 10854 10850 10846 10843 10841 10837 10833 10827 10825 10821 10815 10811 10805 10797 10792 10785 10779 10772 10766 10762 10759 10753 10747
10830 10844 10846 10841 10831 10823 10834 10842 10844 10850 10854 10854 10863 10867 10867 10874 10874 10873 10875 10875 10875 10873 10869 10865 10862 10860 10849 10845 10840 10833 10831 10826 10823 10817 10813 10809 10802 10796 10790 10783 10777 10770 10764 10758 10752 10748 10744 10738 10732
10819 10833 10834 10822 10816 10815 10824 10833 10828 10835 10841 10847 10851 10856 10861 10864 10864 10865 10866 10865 10866 10864 10862 10858 10854 10850 10840 10837 10833 10826 10822 10817 10813 10807 10800 10795 10788 10782 10776 10769 10761 10756 10749 10744 10737 10733 10728 10724 10717
10805 10820 10813 10812 10805 10801 10808 10824 10819 10823 10836 10835 10837 10845 10850 10852 10851 10853 10855 10857 10857 10855 10853 10849 10844 10840 10829 10827 10823 10817 10812 10808 10802 10796 10788 10782 10775 10768 10762 10755 10748 10742 10735 10729 10723 10718 10712 10710 10704
10785 10800 10800 10799 10795 10792 10797 10806 10820 10815 10825 10822 10824 10831 10835 10839 10835 10841 10846 10844 10842 10844 10841 10836 10831 10827 10817 10816 10810 10806 10800 10796 10790 10782 10775 10769 10761 10755 10748 10741 10735 10728 10722 10715 10710 10702 10697 10693 10689
10768 10781 10785 10785 10780 10785 10784 10794 10810 10818 10812 10807 10811 10813 10818 10821 10826 10828 10831 10831 10829 10829 10826 10824 10819 10816 10808 10807 10800 10795 10788 10782 10775 10768 10760 10755 10748 10742 10735 10729 10722 10714 10709 10704 10698 10690 10683 10677 10673
10752 10758 10765 10771 10774 10771 10773 10784 10793 10807 10791 10800 10800 10802 10805 10811 10814 10817 10815 10814 10815 10814 10812 10810 10808 10804 10799 10795 10790 10784 10775 10769 10762 10755 10748 10742 10736 10730 10721 10717 10709 10701 10697 10691 10684 10678 10670 10664 10658
10729 10737 10746 10763 10766 10763 10751 10771 10791 10782 10776 10784 10784 10791 10796 10801 10803 10804 10803 10804 10803 10802 10799 10798 10797 10792 10787 10782 10776 10769 10763 10756 10749 10742 10734 10727 10723 10718 10712 10703 10694 10690 10684 10679 10673 10666 10658 10650 10646
10703 10714 10734 10756 10740 10743 10726 10776 10772 10762 10764 10773 10774 10775 10784 10792 10793 10791 10791 10791 10791 10790 10789 10787 10782 10779 10775 10769 10762 10756 10749 10741 10735 10728 10720 10714 10710 10710 10704 10691 10685 10679 10674 10667 10662 10653 10645 10639 10634
10689 10709 10724 10718 10716 10715 10709 10772 10757 10749 10743 10760 10765 10770 10776 10781 10778 10775 10774 10776 10778 10778 10777 10772 10769 10768 10763 10756 10751 10742 10735 10728 10721 10712 10707 10702 10699 10696 10692 10681 10674 10670 10663 10656 10648 10641 10634 10628 10623
10680 10689 10692 10698 10698 10691 10698 10745 10738 10733 10735 10750 10755 10763 10767 10767 10766 10762 10763 10763 10766 10766 10762 10761 10759 10756 10751 10746 10737 10731 10723 10715 10708 10702 10696 10691 10689 10683 10676 10673 10666 10658 10650 10643 10636 10628 10622 10617 10613
10647 10661 10667 10676 10679 10673 10692 10720 10725 10724 10730 10739 10744 10750 10754 10754 10752 10750 10752 10752 10753 10752 10749 10748 10746 10743 10737 10731 10725 10720 10712 10704 10697 10691 10687 10681 10678 10672 10669 10661 10655 10646 10639 10632 10624 10616 10611 10606 10602
10623 10635 10645 10655 10656 10662 10677 10702 10716 10718 10725 10727 10733 10738 10741 10743 10738 10740 10741 10741 10740 10740 10739 10736 10732 10728 10723 10717 10713 10707 10701 10694 10689 10683 10678 10674 10667 10662 10657 10652 10646 10638 10630 10621 10613 10609 10602 10596 10592
10599 10610 10625 10635 10637 10650 10661 10684 10700 10707 10714 10716 10723 10725 10728 10729 10726 10728 10731 10730 10728 10728 10728 10725 10721 10716 10710 10705 10701 10694 10688 10684 10680 10673 10670 10667 10660 10654 10648 10643 10637 10629 10621 10615 10607 10600 10594 10589 10585
10580 10589 10600 10614 10621 10639 10642 10674 10681 10693 10705 10708 10712 10710 10715 10714 10713 10717 10721 10719 10718 10717 10715 10712 10708 10704 10698 10691 10688 10684 10680 10675 10671 10668 10663 10659 10654 10649 10643 10636 10628 10623 10615 10606 10600 10594 10588 10583 10579
10563 10568 10582 10590 10603 10617 10639 10651 10696 10669 10692 10692 10687 10703 10702 10704 10706 10708 10708 10706 10706 10705 10703 10698 10695 10690 10685 10681 10678 10676 10672 10668 10665 10661 10656 10650 10646 10642 10636 10628 10622 10614 10607 10601 10596 10591 10585 10580 10576
10534 10549 10565 10574 10584 10606 10630 10637 10675 10656 10669 10669 10681 10695 10697 10694 10697 10696 10694 10695 10694 10694 10692 10688 10683 10677 10675 10672 10670 10666 10663 10659 10657 10654 10648 10644 10640 10633 10626 10621 10615 10609 10603 10598 10594 10588 10583 10578 10574
10514 10532 10545 10559 10575 10609 10606 10629 10657 10636 10655 10662 10675 10679 10679 10682 10684 10684 10682 10684 10684 10683 10681 10677 10672 10669 10666 10664 10661 10657 10655 10651 10647 10643 10640 10636 10630 10624 10619 10616 10611 10606 10601 10597 10592 10587 10581 10578 10573
10495 10512 10530 10545 10567 10585 10590 10633 10637 10617 10640 10654 10662 10663 10665 10668 10672 10670 10673 10673 10674 10673 10671 10667 10665 10662 10660 10659 10654 10652 10648 10644 10639 10636 10634 10628 10623 10618 10615 10612 10608 10604 10600 10597 10591 10585 10582 10578 10574
10474 10491 10515 10526 10547 10567 10594 10616 10616 10610 10628 10643 10645 10648 10653 10658 10660 10662 10665 10664 10666 10666 10662 10661 10658 10655 10655 10652 10649 10647 10642 10636 10633 10631 10626 10622 10619 10615 10611 10608 10606 10603 10600 10595 10590 10588 10583 10579 10574
10453 10473 10488 10511 10533 10563 10588 10604 10612 10597 10617 10630 10634 10639 10644 10648 10649 10654 10656 10659 10659 10657 10656 10654 10652 10651 10650 10648 10645 10640 10636 10632 10629 10624 10621 10618 10615 10612 10609 10607 10604 10603 10600 10595 10593 10590 10586 10581 10577
10431 10451 10470 10494 10522 10552 10576 10597 10598 10587 10601 10623 10626 10629 10636 10638 10644 10648 10649 10651 10650 10650 10649 10649 10649 10648 10646 10644 10640 10635 10632 10627 10622 10619 10616 10615 10612 10609 10606 10604 10604 10603 10600 10596 10597 10593 10588 10585 10581
10411 10432 10453 10481 10513 10540 10565 10584 10584 10572 10595 10613 10617 10622 10627 10633 10638 10641 10643 10645 10644 10644 10645 10645 10644 10642 10640 10639 10634 10630 10626 10621 10618 10615 10613 10611 10610 10607 10604 10603 10603 10603 10601 10599 10599 10596 10592 10588 10586